YAOGAN-27

Last updated on Sun Apr 12 2026 00:02:35 GMT+0000 (Coordinated Universal Time)

1 40878U 15040A 26101.51031831 -.00000374 00000+0 -87375-3 0 9997 2 40878 100.1139 90.7964 0008473 13.3226 346.8110 13.16065557508890
UTC large
Height (km)
Speed (km/s)
/
Latitude / Longitude
Inclination (degrees)
Orbital Period (minutes)
Azimuth
Elevation
Range (km)
Doppler Factor

Next 0 passes for location: London (51.5072 / 0.1276)

Sorry there are no passes over London.
YAOGAN-27